Temp
11 11 10 10 10 10 10 10 9 9 9 9 8 8 8 8 7 7 7 7 7 7 7 7 7 8 8 8 7 7 7 8 9 9 10 10 11 11 11 11 12 12 13 13 14 14 14 14 14 14 14 14 14 14 14 14 14 14 14 14 14 14 14 14 14 14 15 16 16 16 16 16 16 16 16 15 15 15 15 16 16 16 16 16 16
10 10 10 10 10 9 9 9 9 9 8 8 8 8 8 8 8 7 7 7 7 6 6 6 6 6 6 7 6 6 7 8 8 8 8 9 9 10 9 9 10 11 11 12 12 13 13 13 14 14 14 14 14 14 14 14 14 14 14 14 14 14 14 14 14 14 14 15 15 16 16 16 16 16 16 15 15 15 15 15 15 16 16 16 16
10 10 10 9 9 9 9 8 8 8 8 8 8 8 8 8 8 7 7 7 6 6 6 6 6 6 5 6 6 6 6 6 6 6 5 5 6 7 8 8 8 8 9 9 10 11 12 12 13 13 14 14 14 14 14 14 14 14 14 14 14 14 14 14 14 14 14 15 15 15 15 15 16 16 16 16 15 15 15 15 15 15 16 16 16
10 10 9 9 9 9 8 8 8 8 8 8 7 7 7 7 7 7 7 6 6 6 6 5 5 5 5 5 5 5 5 4 4 3 3 3 4 5 6 7 7 7 7 7 8 9 9 9 10 11 12 13 14 14 14 14 14 14 14 14 14 14 14 14 14 14 14 14 14 15 15 15 16 16 16 16 15 14 14 14 14 14 14 15 16
10 9 9 9 9 9 8 8 8 8 7 7 7 7 7 7 7 7 6 6 6 5 5 5 5 5 5 4 4 4 4 3 3 3 3 3 3 4 5 6 7 7 7 7 7 7 7 7 8 9 10 12 13 14 14 14 14 14 14 14 14 14 14 14 14 14 14 14 14 14 15 15 15 16 16 15 14 14 14 14 13 13 13 14 14
9 9 9 9 9 9 8 8 8 7 7 7 7 7 7 6 6 6 6 5 5 4 4 4 4 4 4 4 4 4 3 3 3 3 3 3 3 4 5 6 7 7 7 7 7 7 7 7 7 8 8 10 11 13 14 14 14 14 14 14 14 14 14 14 14 14 14 14 14 14 14 15 15 15 15 15 14 14 13 13 13 13 13 13 13
9 9 9 9 8 8 8 8 8 7 7 7 7 7 6 6 6 6 5 5 4 4 4 4 4 4 4 4 4 3 3 3 2 3 3 4 3 4 4 6 6 7 7 7 7 7 7 7 7 7 7 8 9 11 13 13 14 14 14 14 14 14 14 14 14 14 14 14 14 14 14 14 14 14 14 15 14 14 13 12 12 12 12 12 13
9 9 8 8 8 8 8 8 7 7 7 7 6 6 6 6 6 5 5 5 4 4 4 4 4 4 3 3 3 3 3 2 2 3 3 4 4 4 4 5 6 6 6 6 7 7 7 7 7 7 7 8 8 9 10 12 13 13 14 14 14 14 14 14 14 14 14 14 14 14 14 14 14 14 14 13 13 13 13 12 12 12 12 12 13
8 8 8 8 7 7 7 7 7 7 7 6 6 6 6 6 5 5 5 5 4 4 4 3 3 3 3 3 3 3 3 2 2 3 3 3 4 4 4 5 5 6 6 6 6 6 6 6 7 7 7 8 8 9 9 10 11 12 13 14 14 14 14 14 14 14 14 14 14 14 13 13 14 13 13 12 12 12 12 12 12 12 12 12 12
8 8 7 7 7 7 7 7 7 6 6 6 6 6 6 6 5 5 5 5 4 4 4 3 3 3 3 3 3 3 2 2 3 4 4 3 4 4 4 4 5 5 5 5 5 5 6 6 6 6 7 7 7 8 9 10 10 11 12 13 14 14 14 14 14 14 14 14 14 14 13 13 14 13 13 12 13 13 12 12 12 12 11 11 11
7 7 7 6 6 6 6 6 6 6 6 6 6 6 6 5 5 5 5 4 4 4 4 3 3 3 3 3 3 2 2 2 3 4 4 4 4 4 3 3 4 4 5 5 5 5 5 5 5 5 5 6 6 7 8 9 10 11 11 12 13 13 14 14 14 14 14 14 14 14 13 13 14 14 13 13 12 13 12 12 12 11 11 11 11
7 7 6 6 6 6 6 6 5 5 5 6 6 6 5 5 5 5 4 4 4 4 4 3 3 3 3 3 3 2 2 2 3 4 4 5 5 5 3 3 3 4 4 4 4 4 4 4 4 5 5 5 5 5 6 8 9 10 10 11 12 13 13 13 14 14 14 14 14 13 13 14 14 14 14 13 12 12 12 12 12 11 11 11 11
7 6 6 6 6 5 5 5 5 5 5 5 6 6 5 5 5 5 5 4 4 4 4 3 3 3 3 3 3 2 2 3 3 4 4 4 5 5 4 3 3 3 3 4 4 4 4 4 4 4 4 4 5 4 4 5 7 9 10 11 11 12 13 13 13 14 14 14 14 14 14 14 14 14 14 14 13 12 11 11 11 11 11 11 12
7 6 6 6 5 5 5 5 5 5 5 6 6 6 5 5 5 5 5 5 4 4 4 3 3 3 3 3 3 2 2 2 3 3 4 4 4 4 4 3 3 3 3 3 3 3 3 3 4 4 4 4 4 4 4 4 4 6 8 10 10 11 12 13 13 13 13 13 13 14 14 14 14 15 15 14 13 13 12 11 11 11 12 12 12
7 6 6 6 6 6 5 5 5 5 6 6 6 6 6 5 5 5 5 5 4 4 4 4 3 3 3 3 3 2 2 2 3 3 3 4 4 4 4 3 3 3 3 3 3 3 3 3 3 3 3 4 4 3 3 3 3 4 5 8 10 11 11 13 13 13 13 13 13 13 14 14 14 15 15 14 14 14 14 13 12 12 12 12 11
7 7 6 6 6 6 6 6 6 6 6 6 6 6 6 5 5 5 5 5 5 4 4 4 3 3 3 3 2 2 2 2 3 3 3 3 4 4 4 3 3 3 3 3 2 2 2 2 3 3 3 3 4 4 4 4 4 4 4 6 9 10 11 12 13 13 13 13 13 13 13 14 14 14 15 14 14 14 13 12 12 11 11 11 10
7 7 7 7 7 7 6 6 6 6 6 6 6 6 5 5 5 5 5 5 5 5 4 4 3 3 3 2 2 2 2 2 3 3 3 3 3 3 3 2 2 2 3 2 2 2 2 2 2 2 2 3 4 5 5 5 6 6 5 5 7 9 10 12 13 13 13 13 13 13 13 13 13 14 14 14 14 14 13 12 11 11 11 11 10
7 7 7 7 7 7 7 7 7 6 6 6 6 6 5 5 5 5 5 5 5 5 4 4 4 3 3 2 2 2 2 2 2 3 3 3 3 2 1 1 1 2 2 2 2 2 2 2 2 2 2 3 4 5 6 6 6 6 4 4 6 8 10 11 12 13 13 13 13 13 13 13 13 13 14 14 14 13 13 12 11 11 10 11 10
7 7 7 7 7 7 7 7 7 7 6 6 6 6 5 5 5 5 5 5 5 5 5 4 4 3 3 3 2 2 2 2 2 3 3 3 3 2 1 -0 0 1 2 1 2 2 2 2 2 2 2 3 4 5 6 6 5 5 4 5 7 9 10 11 12 13 13 13 13 13 13 13 13 13 13 14 13 13 13 13 12 11 11 11 10
7 7 7 7 7 7 7 7 7 6 6 6 6 6 6 5 5 5 5 5 5 5 4 4 4 3 3 3 3 2 2 2 2 2 3 3 3 2 1 -0 -0 0 1 1 1 1 1 1 2 2 2 3 4 5 5 6 6 6 6 7 9 10 11 11 12 12 12 12 12 12 12 13 13 13 13 13 13 13 13 13 12 12 12 11 10
7 7 7 7 7 7 7 7 7 6 6 6 6 6 6 6 5 5 5 5 5 4 4 4 4 3 3 3 2 2 2 2 2 2 2 2 2 2 2 0 -0 -0 0 1 1 1 1 1 1 1 2 3 4 4 5 5 6 6 6 7 8 9 10 10 10 10 10 11 11 11 11 11 11 12 12 13 13 13 13 12 12 12 12 12 10
8 7 7 7 7 7 7 7 7 6 6 6 6 6 6 6 5 5 5 5 4 4 4 4 4 3 3 3 2 2 2 2 2 2 2 2 2 2 2 1 1 0 0 0 0 0 0 1 1 1 2 3 4 4 4 5 5 6 6 6 7 8 8 9 9 9 8 8 8 9 9 9 10 10 10 11 11 12 12 12 12 12 12 12 12
8 8 7 7 7 7 7 7 7 6 6 6 6 6 6 6 5 5 5 5 4 4 4 4 4 3 3 3 2 2 2 2 2 2 2 2 2 2 2 2 2 1 0 -0 0 0 0 0 1 1 2 3 3 4 4 4 4 5 6 6 7 7 7 7 8 8 8 8 7 7 7 7 8 8 9 9 9 10 11 11 11 11 11 11 11
8 8 8 7 7 7 7 7 7 6 6 6 6 6 6 6 5 5 5 5 4 4 4 4 4 3 3 2 2 2 2 2 2 1 1 2 2 2 2 3 3 2 1 0 0 0 0 0 1 1 2 3 3 3 4 4 3 4 5 6 7 7 6 6 6 7 7 7 6 6 6 6 6 7 8 9 9 9 10 10 10 10 10 10 11
8 8 8 7 7 7 7 7 7 7 7 6 6 6 6 6 6 5 5 5 4 4 4 4 3 3 2 2 2 2 2 2 2 2 1 1 2 2 2 2 3 3 2 1 1 1 0 1 1 1 2 3 2 2 3 3 3 4 4 5 6 6 5 5 5 5 5 5 5 5 5 6 6 6 7 9 9 9 9 9 9 9 9 10 10
8 8 8 8 8 7 7 7 7 7 7 7 6 6 6 6 6 5 5 5 5 4 4 4 3 3 3 2 2 2 2 2 2 2 1 1 1 2 2 2 2 3 2 2 2 1 1 1 1 1 2 2 2 2 2 2 3 3 4 4 4 4 4 4 4 4 4 4 5 4 4 5 5 6 7 8 8 8 8 8 8 8 8 9 9
8 8 8 8 8 8 8 7 7 7 7 7 7 6 6 6 6 6 5 5 5 4 4 4 3 3 3 2 2 2 2 2 2 2 1 1 1 1 2 2 2 2 2 1 1 1 1 1 1 1 2 2 3 3 2 2 2 3 3 3 3 4 4 4 4 4 4 4 4 4 5 5 5 6 6 6 6 6 7 8 8 7 7 8 7
8 8 8 8 8 8 8 8 7 7 7 7 7 7 6 6 6 6 5 5 5 5 4 4 3 3 3 2 2 2 2 2 2 2 1 1 1 1 1 1 1 1 1 0 1 1 0 1 1 1 1 1 2 2 2 2 1 1 2 3 3 4 4 5 5 4 4 4 4 4 5 5 5 5 5 5 5 5 6 6 6 6 7 7 6
9 8 8 8 8 8 8 8 8 8 7 7 7 7 7 7 6 6 6 5 5 5 4 4 4 3 3 3 2 2 2 2 2 2 2 1 1 1 1 1 1 1 1 0 1 1 0 0 0 0 -0 -0 -0 -0 0 0 1 1 1 2 2 3 4 4 4 4 4 4 4 4 4 4 4 4 4 4 4 4 5 5 5 5 6 6 4
9 9 8 8 8 8 8 8 8 8 8 7 7 7 7 7 7 6 6 6 5 5 5 4 4 4 4 3 3 2 2 2 2 2 2 2 2 2 1 1 1 1 1 1 1 -0 -0 -0 -0 -1 -1 -1 -1 -1 -1 -0 -0 0 0 1 1 2 2 3 3 4 5 5 5 4 4 4 4 4 4 4 4 4 4 4 4 4 4 4 3
9 9 9 8 8 8 8 8 8 8 8 8 8 8 7 7 7 6 6 6 5 5 5 5 4 4 4 4 3 3 3 3 2 2 2 2 2 2 2 1 1 1 1 1 0 -0 -1 -1 -1 -1 -1 -1 -1 -1 -1 -1 -1 -0 -0 0 0 1 1 2 2 3 4 5 5 5 5 5 5 5 5 5 5 5 5 4 4 3 3 3 3
9 9 9 9 9 8 8 8 8 8 8 8 8 8 7 7 7 7 6 6 6 5 5 5 5 4 4 4 3 3 3 3 2 2 2 2 2 2 2 1 1 1 1 1 0 -0 -1 -1 -1 -1 -1 -1 -1 -1 -1 -1 -1 -1 -0 -0 0 0 1 1 2 3 3 4 4 4 4 5 5 5 5 5 5 5 5 5 4 4 4 3 3
9 9 9 9 9 9 8 8 8 8 8 8 8 8 8 8 7 7 6 6 6 5 5 5 5 4 4 4 3 3 3 3 3 2 2 2 2 2 2 1 1 1 1 1 0 -0 -0 -0 -0 -1 -1 -1 -1 -1 -1 -1 -1 -1 -0 -0 -0 -0 0 1 2 2 3 3 3 3 4 4 5 4 5 5 5 5 5 5 5 5 4 4 3
9 9 9 9 9 9 9 8 8 8 8 8 8 8 8 8 7 7 7 6 6 6 6 5 5 5 4 4 4 3 3 3 3 2 2 2 2 2 2 2 2 2 1 1 1 1 0 0 0 0 0 -0 -0 -0 -0 -0 -0 -0 -0 -0 -0 -0 0 1 1 1 2 3 3 3 3 3 4 4 4 4 4 5 5 5 5 4 4 3 3
9 9 9 9 9 9 9 8 8 8 8 8 8 8 8 8 8 7 7 6 6 6 6 5 5 5 5 4 4 4 3 3 3 3 2 2 2 2 2 2 2 2 2 2 1 1 1 1 1 1 1 1 1 0 0 0 -0 -0 -0 0 0 0 0 1 1 1 1 2 2 2 3 3 3 4 4 4 4 4 4 4 5 4 4 4 4
9 9 9 9 9 9 9 9 8 8 8 8 8 8 8 8 8 8 7 7 6 6 6 6 5 5 5 5 4 4 4 3 3 3 3 2 2 2 2 2 2 2 2 2 2 2 2 2 1 1 1 1 1 1 1 1 1 1 1 1 1 1 1 1 1 1 1 1 1 2 2 2 3 3 4 4 4 4 4 4 4 4 4 4 4
9 9 9 9 9 9 9 9 9 8 8 8 8 8 8 8 8 8 7 7 7 6 6 6 5 5 5 5 5 4 4 4 3 3 3 2 2 2 2 2 2 2 2 2 2 2 2 2 2 2 1 1 1 1 1 1 1 1 1 1 1 1 1 1 1 1 1 1 1 1 1 2 2 3 3 4 4 4 4 4 4 4 4 4 4
9 9 9 9 9 9 9 9 9 8 8 8 8 8 8 8 8 8 7 7 7 7 6 6 6 6 6 5 5 5 4 4 4 3 3 3 2 2 2 2 2 2 2 2 2 2 2 2 2 2 2 2 2 2 2 2 2 2 2 2 2 2 2 2 2 2 1 1 1 1 1 2 2 3 3 3 3 4 4 4 4 4 4 4 4
9 9 9 9 9 9 9 9 9 8 8 8 8 8 8 8 8 8 7 7 7 7 7 6 6 6 6 6 5 5 5 4 4 3 3 3 2 2 2 2 2 2 2 2 2 2 2 2 2 2 2 2 2 2 2 2 2 2 2 2 2 2 2 2 2 2 2 2 2 2 2 2 2 2 3 3 3 3 3 3 4 4 4 4 4
9 9 10 10 10 9 9 9 9 8 8 9 9 9 9 8 8 8 8 7 7 7 7 6 6 6 6 6 5 5 5 4 4 3 3 3 3 2 2 2 2 2 2 2 2 2 2 2 2 2 2 2 2 2 2 2 2 2 2 2 2 2 2 3 3 3 3 3 2 2 2 2 2 3 3 3 3 3 3 3 4 4 4 4 4
9 9 10 10 10 9 9 9 9 9 9 9 9 9 9 8 8 8 8 7 7 7 7 6 6 6 6 6 6 5 5 5 4 4 4 3 3 3 3 2 2 2 2 2 2 2 2 2 2 2 2 2 2 2 2 2 2 2 2 2 2 2 2 3 3 3 3 3 3 3 3 3 3 3 3 3 3 3 3 4 4 4 4 4 4
9 10 10 10 9 9 9 9 9 9 9 9 9 9 9 8 8 8 8 7 7 7 7 7 7 6 6 6 6 5 5 5 4 4 4 4 3 3 3 3 3 2 2 2 2 2 2 2 2 2 2 2 2 2 2 2 2 2 2 2 2 2 2 3 3 3 3 3 3 3 3 3 3 3 3 4 4 4 4 4 4 4 4 4 4
9 9 9 9 9 9 9 9 9 9 9 9 9 9 9 8 8 8 8 7 7 7 7 7 7 6 6 6 6 6 5 5 5 4 4 4 4 3 3 3 3 3 3 2 2 2 2 2 2 2 2 2 2 2 2 2 2 2 2 2 2 2 2 3 3 3 4 4 4 4 4 4 4 4 4 4 4 4 4 4 4 4 4 4 5
9 9 9 9 9 9 9 9 9 9 9 9 9 9 9 8 8 8 8 7 7 7 7 7 7 6 6 6 6 6 6 5 5 5 4 4 4 4 4 3 3 3 3 3 3 2 2 2 2 2 2 2 2 2 2 2 2 2 2 2 2 2 2 2 3 3 3 4 4 4 4 4 4 4 4 4 4 4 4 4 4 4 4 4 5
9 9 9 9 9 9 9 9 9 9 9 9 9 9 8 8 8 8 7 7 7 7 7 7 7 7 6 6 6 6 6 6 5 5 5 5 4 4 4 4 3 3 3 3 3 3 2 2 2 2 2 2 2 2 2 2 2 2 2 2 2 2 2 2 2 3 3 3 4 4 4 4 4 4 4 4 4 4 4 4 4 4 4 4 4
9 9 9 9 9 9 9 9 9 9 9 9 9 8 8 8 8 8 8 7 7 7 7 7 7 7 6 6 6 6 6 6 6 5 5 5 5 4 4 4 4 3 3 3 3 3 3 2 2 2 2 2 2 2 2 2 2 2 2 1 1 1 2 2 2 3 3 3 3 4 4 4 4 4 4 4 4 4 4 4 4 4 4 4 4
9 9 9 9 9 9 9 9 9 9 9 9 9 8 8 8 8 8 8 8 8 8 7 7 7 7 6 6 6 6 6 6 6 5 5 5 5 4 4 4 4 4 4 3 3 3 3 3 2 2 2 2 2 2 2 2 2 2 2 2 1 1 1 1 2 2 3 3 3 3 4 4 4 4 4 4 4 4 4 4 4 4 4 4 4
9 9 9 9 9 9 9 9 9 9 9 9 9 8 8 8 8 8 8 8 8 8 7 7 7 7 7 6 6 6 6 6 6 6 5 5 5 5 5 4 4 4 4 4 4 3 3 3 3 2 2 2 2 2 2 2 2 2 2 2 1 1 1 1 2 2 2 3 3 3 3 3 4 4 4 4 4 4 4 4 4 4 4 4 4
9 9 9 9 9 9 9 9 9 9 9 9 9 8 8 8 8 8 8 8 8 8 7 7 7 7 6 6 6 6 6 6 6 6 5 5 5 5 5 4 4 4 4 4 4 4 3 3 3 3 3 3 2 2 2 2 2 2 2 2 1 1 1 1 1 2 2 2 2 3 3 3 3 3 3 3 3 3 4 4 4 4 4 4 4
9 9 9 9 9 9 9 9 9 9 9 9 9 8 8 8 8 8 8 8 8 7 7 7 7 7 7 6 6 6 6 6 6 6 5 5 5 5 5 5 4 4 4 4 4 4 4 4 3 3 3 3 3 3 2 2 2 2 2 2 1 1 1 1 1 1 2 2 2 2 2 3 3 3 3 3 3 3 3 3 3 4 4 4 4
9 9 9 9 9 9 9 9 9 9 9 9 9 8 8 8 8 8 8 8 7 7 7 7 7 7 7 6 6 6 6 6 6 6 6 5 5 5 5 5 5 4 4 4 4 4 4 4 4 3 3 3 3 3 3 2 2 2 2 2 2 1 1 1 1 1 1 1 2 2 2 2 2 2 2 3 3 3 3 3 3 3 4 4 4
Height
837 836 836 836 835 834 834 833 832 831 830 829 829 828 827 826 824 823 822 821 819 817 816 814 813 812 810 809 808 807 806 804 802 800 797 795 794 792 791 789 787 785 783 782 781 780 779 777 776 776 775 774 773 773 772 772 772 772 772 771 770 770 770 770 769 768 768 769 769 770 772 773 774 775 776 777 779 780 782 784 787 789 791 793 796
838 838 838 837 837 836 835 834 833 832 831 831 831 830 829 827 826 825 823 822 820 819 817 816 814 813 811 810 809 808 806 805 803 800 797 795 793 791 790 788 786 784 782 780 779 778 777 775 774 773 773 772 770 770 769 769 769 769 768 768 767 766 766 767 767 766 766 766 766 767 768 770 770 771 772 773 774 776 778 781 783 785 787 789 792
840 840 839 839 838 838 837 836 835 834 833 833 832 831 830 829 827 826 824 823 821 820 818 817 815 813 812 811 810 809 807 805 803 801 798 796 793 791 789 787 786 784 782 779 777 776 775 773 772 771 771 769 768 767 767 766 766 765 765 764 764 763 763 763 763 763 763 762 763 764 765 766 766 767 768 770 771 773 775 777 778 780 782 785 788
841 841 840 840 840 839 838 837 836 836 835 834 833 833 831 830 828 827 826 824 822 820 819 818 816 815 813 812 811 810 808 806 804 802 799 797 794 791 789 787 785 784 781 779 777 775 773 771 770 769 768 767 765 764 763 763 762 762 761 761 760 759 759 760 759 759 759 759 759 760 761 761 761 762 765 767 769 770 772 774 776 777 779 781 784
843 842 841 841 841 840 840 839 838 837 837 836 835 834 832 831 829 828 827 825 823 821 820 818 817 816 814 813 812 811 809 807 805 802 800 797 794 791 789 787 785 783 781 779 777 775 773 771 769 767 766 764 762 761 760 759 759 758 758 757 757 756 756 756 756 756 756 755 755 757 757 758 758 759 761 763 766 768 770 772 773 775 777 779 780
844 843 843 842 842 841 841 840 840 839 838 837 836 835 833 832 830 829 828 826 824 823 821 820 818 817 816 815 813 811 810 808 805 802 799 796 794 791 788 786 784 782 780 778 776 774 772 770 768 766 764 762 760 758 757 756 756 755 754 754 753 753 753 752 752 752 751 751 751 753 754 754 755 756 757 759 761 763 765 768 770 772 775 777 778
844 844 844 843 843 842 842 842 841 841 840 839 838 836 835 833 831 830 829 827 826 824 823 822 820 819 818 816 814 813 811 808 805 802 799 796 793 790 787 785 782 780 778 776 774 773 771 769 767 765 763 760 758 756 755 753 752 751 750 750 750 750 749 748 748 748 747 747 747 748 749 750 752 752 753 754 757 758 760 763 766 768 771 773 775
845 846 845 845 845 844 843 843 842 842 841 840 839 838 837 835 833 832 830 828 827 826 825 823 822 821 819 818 816 814 812 809 806 803 800 796 793 790 787 785 782 779 777 775 773 771 769 767 765 763 761 759 757 755 752 751 749 747 746 746 745 745 745 745 744 743 743 743 743 744 745 746 748 749 750 752 754 755 756 758 761 763 766 768 770
847 847 847 846 846 845 845 844 843 843 842 841 840 839 838 837 835 833 831 830 829 828 827 825 823 822 820 819 817 815 812 810 807 805 801 797 794 790 787 785 782 779 776 774 771 769 767 765 763 761 759 757 755 752 749 748 746 744 742 741 741 741 740 740 740 740 740 739 739 740 741 741 742 744 746 746 747 750 753 755 757 759 762 764 766
849 849 848 848 847 846 845 845 844 843 843 842 842 841 840 838 836 835 833 832 830 829 828 826 824 823 821 819 817 815 813 811 808 806 802 799 795 791 787 784 782 779 776 774 771 768 765 763 761 758 756 753 751 748 746 744 742 740 739 738 737 737 736 736 736 736 736 736 735 735 736 737 737 739 740 740 743 747 749 751 754 757 761 763 764
850 850 849 849 848 847 846 846 845 844 844 843 843 842 841 839 837 836 835 833 832 830 829 827 826 824 822 820 817 815 813 811 808 805 802 799 795 791 788 785 782 779 777 774 770 767 764 761 758 755 752 750 747 744 741 739 737 736 734 734 733 733 732 732 731 732 732 731 731 731 732 732 733 734 735 737 740 743 744 746 749 753 756 758 758
852 851 850 850 849 848 847 846 846 845 845 845 844 843 842 840 839 837 836 834 833 831 830 828 827 825 823 821 818 816 814 811 808 805 801 798 795 791 788 785 782 779 777 774 770 767 763 759 756 753 751 748 745 741 738 734 732 731 729 728 728 727 727 727 727 727 727 727 727 726 726 727 728 729 730 732 735 738 740 741 743 745 749 750 750
853 852 852 851 850 849 848 848 847 846 846 846 845 844 843 841 840 838 837 835 834 832 831 830 828 826 823 821 819 817 814 812 808 805 801 798 795 791 788 785 782 780 777 774 770 767 763 759 755 751 748 746 742 739 735 731 727 725 723 722 721 721 722 722 722 722 722 722 722 721 721 722 722 723 725 728 730 733 736 737 738 740 742 742 743
855 854 853 852 851 851 850 849 848 848 848 848 847 846 845 843 842 840 838 837 835 834 832 830 829 826 824 822 820 817 815 812 809 805 802 798 795 791 788 785 782 779 776 774 771 767 764 760 755 751 747 743 740 736 732 728 723 720 717 715 715 715 715 716 716 717 717 718 717 717 716 717 718 719 721 723 724 725 728 730 732 734 735 736 739
857 856 855 854 853 852 851 851 850 850 850 850 849 848 846 844 843 841 840 838 837 835 833 831 829 827 825 822 820 818 816 813 809 806 802 798 795 791 788 785 782 779 776 773 770 767 764 760 756 752 747 742 738 734 729 724 718 714 711 708 708 709 710 710 711 712 712 712 712 712 713 714 714 716 717 718 719 720 722 723 725 727 730 734 738
858 857 856 855 855 854 853 853 852 852 852 851 850 849 847 846 845 844 842 841 839 837 834 832 830 828 825 823 821 819 816 813 810 806 802 799 794 791 788 784 781 778 775 772 770 766 764 760 756 752 746 740 735 730 725 719 712 707 704 701 702 703 704 704 706 707 707 707 707 708 709 710 711 713 714 715 716 717 720 723 724 727 730 733 737
859 858 857 857 856 856 855 854 854 854 853 852 851 850 849 848 847 846 844 842 840 837 835 833 831 829 826 824 822 819 817 814 811 807 803 799 795 791 788 784 781 778 774 772 769 766 763 760 756 752 745 739 733 727 721 714 706 700 697 696 698 699 699 700 701 702 703 703 703 704 705 706 707 709 710 711 712 714 717 719 720 723 727 730 732
860 859 858 858 858 857 857 856 856 855 854 853 853 852 851 850 849 847 845 843 841 839 837 835 833 830 828 825 823 821 817 815 812 808 804 801 796 792 789 785 782 778 774 771 769 765 762 759 756 751 745 739 733 727 719 711 703 698 696 695 696 696 696 697 698 699 699 699 700 700 700 702 703 705 706 707 708 710 711 712 714 718 721 724 727
860 860 860 860 859 859 858 858 857 856 856 855 854 854 853 852 850 848 846 844 842 840 838 836 834 832 829 827 824 821 818 815 812 809 806 802 798 794 790 787 783 779 775 772 768 765 761 757 753 750 745 739 733 727 720 712 705 700 698 696 695 694 694 695 696 696 696 696 696 696 697 697 699 700 701 702 704 705 705 707 710 712 715 719 723
861 861 861 861 861 861 860 859 859 858 857 857 856 855 854 852 851 849 846 845 843 841 840 837 835 833 831 828 825 822 819 816 813 810 807 803 800 796 792 789 785 781 777 774 769 765 761 757 753 749 744 738 733 727 721 715 708 704 700 697 694 693 693 693 694 693 693 693 693 693 693 694 695 696 697 698 699 700 702 704 705 706 709 714 718
862 863 863 862 862 862 861 860 860 859 859 858 857 856 854 853 851 849 847 846 844 843 841 839 837 834 832 829 826 823 820 818 815 811 808 805 801 797 794 791 788 783 779 776 772 768 763 759 754 750 745 739 734 729 723 717 712 707 703 699 695 693 691 691 691 691 692 692 692 692 692 692 692 693 693 694 695 696 698 700 701 702 705 708 711
863 864 863 863 863 862 862 861 861 860 860 859 858 856 855 853 852 850 849 847 845 843 841 839 836 834 832 829 827 824 822 819 816 812 809 806 803 799 796 793 789 786 781 778 774 770 766 761 757 752 747 741 736 731 726 719 714 710 706 702 698 694 692 692 691 691 692 692 692 692 692 692 692 691 691 692 692 694 695 697 698 700 702 703 705
864 864 864 863 863 863 862 862 862 861 860 859 858 857 855 854 853 851 849 847 845 843 841 839 837 834 832 830 827 825 822 819 817 813 810 807 804 801 798 795 791 787 784 780 777 773 769 764 760 755 749 743 738 733 728 722 717 713 709 705 701 698 696 694 694 693 693 694 694 695 695 695 694 692 691 692 692 693 694 695 696 698 701 703 704
865 864 864 864 864 863 863 863 862 862 861 859 858 857 856 855 853 852 850 848 846 844 841 839 837 835 833 830 828 826 823 820 818 815 812 809 806 802 799 796 793 789 785 782 779 775 771 767 762 757 751 746 741 736 731 726 721 716 712 708 705 702 700 699 698 697 696 696 697 698 699 699 698 696 693 693 694 695 696 696 697 698 700 703 705
864 864 864 864 864 864 864 863 863 862 861 860 859 858 856 855 854 852 850 848 846 845 843 841 839 836 834 832 829 827 824 822 819 816 813 810 807 804 801 798 794 791 787 784 780 777 773 768 763 758 754 749 744 739 734 730 725 720 716 712 709 707 705 705 703 701 700 701 702 702 702 702 702 700 696 695 697 699 700 699 699 700 701 703 706
864 864 864 864 864 864 864 863 863 862 861 860 859 858 857 856 854 853 851 850 848 846 844 842 840 838 836 833 831 829 826 823 820 817 814 812 809 806 802 799 796 793 789 785 782 778 774 770 765 760 756 751 746 742 737 733 728 724 721 717 715 713 711 710 708 706 707 707 707 707 707 706 705 703 700 699 700 702 703 703 702 703 704 704 707
864 864 864 864 864 864 864 863 863 862 861 860 859 858 857 856 855 853 852 850 849 847 845 843 841 839 837 835 833 830 828 825 822 819 816 813 811 808 804 801 798 794 790 787 783 779 776 772 767 762 758 753 749 745 741 737 732 729 726 724 722 720 718 717 715 713 713 713 712 712 712 710 709 707 706 705 706 706 706 706 706 707 707 707 709
864 864 864 864 864 864 864 863 863 862 861 860 859 858 858 856 855 854 853 851 850 848 847 845 843 841 839 837 834 832 829 827 824 822 819 817 814 810 807 803 800 796 793 790 786 782 778 773 768 764 759 756 752 749 746 742 739 737 734 731 728 726 724 722 721 719 719 717 716 716 716 714 713 713 712 712 712 712 711 710 710 711 711 710 713
864 864 864 864 864 864 863 863 862 862 861 860 860 859 858 857 856 855 854 852 851 850 848 847 845 844 842 839 837 834 831 829 828 826 824 821 818 814 810 807 804 800 797 793 789 784 780 775 771 768 764 761 758 756 752 749 746 744 741 738 735 732 730 728 726 726 725 723 722 722 721 720 720 720 719 718 718 718 716 715 715 715 714 714 719
864 864 864 864 864 864 863 863 862 862 861 861 860 859 858 857 856 855 854 853 852 851 850 848 847 845 843 841 839 837 835 833 832 829 827 824 820 817 814 811 807 804 800 796 792 788 784 780 777 774 771 768 766 763 760 757 753 750 748 745 742 740 738 735 734 733 732 730 728 728 727 727 726 726 725 724 724 724 723 722 721 720 720 720 724
864 864 864 864 864 863 863 863 863 862 862 861 861 860 859 858 857 856 855 854 853 852 851 849 848 846 845 843 841 840 838 836 833 831 828 825 822 819 816 813 810 807 804 799 795 792 789 787 784 781 778 775 773 770 766 763 760 758 755 752 750 748 746 744 742 740 738 736 735 734 734 733 733 732 732 731 730 730 729 729 728 728 728 729 731
864 864 864 864 864 863 863 863 863 863 862 862 861 860 859 858 857 857 856 855 854 853 852 850 849 848 846 844 842 840 839 837 835 832 830 827 825 821 818 815 812 810 807 802 798 796 795 792 790 787 784 781 778 775 772 769 766 764 761 759 757 755 753 751 749 747 745 743 742 741 740 740 740 739 739 738 737 736 736 736 736 737 737 737 738
864 864 864 864 864 863 863 863 863 863 862 862 861 860 860 859 858 857 857 856 855 854 852 851 850 849 847 846 844 842 840 838 836 834 832 829 827 824 821 818 815 812 809 805 802 801 799 797 795 792 790 787 784 781 777 775 772 770 767 765 764 762 760 758 755 752 751 749 748 747 746 746 746 745 745 744 744 743 744 744 745 745 746 747 748
864 864 864 864 864 863 863 863 863 863 863 862 861 860 860 859 859 858 857 857 856 855 853 852 851 849 848 847 845 843 841 839 837 835 833 831 829 826 823 820 817 815 812 809 807 805 803 801 799 796 794 792 789 786 783 780 778 775 773 771 769 767 765 763 760 758 757 756 754 753 752 752 751 751 750 750 750 750 750 751 751 752 753 754 755
864 864 864 864 864 864 863 863 863 863 863 862 862 861 860 860 859 859 858 857 856 855 854 853 851 850 849 847 846 844 843 840 839 837 835 833 831 828 825 821 819 817 814 812 811 809 807 805 803 801 798 796 793 790 788 786 783 780 778 776 775 772 770 768 766 764 763 761 760 759 758 757 756 756 756 756 756 756 756 757 757 758 758 759 761
864 864 864 864 864 863 863 863 863 863 863 862 862 861 860 860 860 859 858 857 857 855 854 853 852 851 850 848 847 845 844 842 840 838 836 834 832 830 827 824 821 820 818 816 814 813 811 809 807 804 803 800 798 795 793 790 788 786 784 782 780 778 775 773 771 770 768 766 766 765 763 763 762 762 761 761 761 761 762 762 763 763 764 764 765
864 864 864 864 863 863 863 863 863 863 863 862 862 861 860 860 859 859 859 858 857 856 855 854 853 851 850 849 848 846 845 843 842 839 838 836 834 832 829 827 825 823 821 819 817 816 814 812 810 808 806 804 802 800 798 795 793 791 789 787 785 783 781 779 777 775 774 772 771 770 768 768 768 767 767 767 767 767 768 768 768 769 769 769 770
863 863 863 863 863 863 863 863 863 863 862 862 861 860 860 859 859 859 859 858 857 856 855 854 853 852 850 849 848 847 846 844 842 840 839 837 835 833 832 830 828 826 824 822 820 819 817 815 813 811 809 807 805 804 802 800 797 795 793 791 789 787 785 783 781 780 779 777 776 775 774 773 773 772 772 772 772 773 773 773 773 774 774 774 774
863 863 863 862 862 862 862 862 863 863 862 861 861 860 859 859 859 859 858 858 857 856 855 854 853 852 851 850 849 847 846 845 843 841 840 838 837 835 834 832 830 828 826 825 823 821 819 818 816 814 812 810 808 806 805 803 801 799 797 795 793 791 789 788 786 785 783 783 782 780 779 778 778 777 777 777 778 778 778 778 778 778 778 778 778
862 862 862 862 862 862 862 862 862 862 862 861 860 860 859 859 859 859 858 858 857 856 856 855 854 852 851 850 849 848 847 846 844 843 841 839 838 837 835 834 832 830 829 827 825 823 822 820 818 816 815 813 811 809 807 806 804 803 801 799 797 796 794 792 791 790 789 788 787 785 784 783 783 782 782 782 782 783 783 783 783 783 783 783 783
861 861 861 861 861 862 862 862 862 862 861 861 860 860 859 859 858 858 858 858 857 856 856 855 854 853 852 851 850 849 848 846 845 844 842 841 839 838 837 835 834 832 831 829 827 825 824 822 820 819 817 815 813 812 810 809 807 805 804 802 801 799 798 796 795 794 793 792 791 790 789 788 787 786 786 786 786 787 786 786 786 786 786 787 787
861 860 860 861 861 861 861 861 861 861 861 861 860 859 859 858 858 858 858 857 857 856 855 855 854 853 852 851 850 849 848 847 846 845 843 842 841 839 838 837 835 834 832 831 829 827 825 824 822 820 819 817 815 814 812 811 809 808 806 805 803 802 801 800 798 797 796 795 794 793 793 792 791 790 790 790 790 790 789 790 790 790 790 790 791
860 860 860 860 860 861 861 861 861 861 861 860 860 859 858 858 858 858 858 857 857 856 855 855 854 853 852 851 850 849 848 847 846 845 844 843 841 840 839 837 836 835 834 832 831 829 827 825 824 822 820 819 817 816 815 813 812 810 809 808 806 805 804 803 802 800 799 798 798 797 796 795 795 794 794 793 793 793 793 793 793 793 793 794 794
859 859 859 860 860 860 860 860 860 860 860 860 859 859 858 858 857 857 857 857 856 856 855 854 854 853 852 851 850 849 848 847 846 845 844 843 842 841 839 838 837 836 835 833 832 830 829 827 825 824 822 821 819 818 817 815 814 813 812 810 809 808 807 806 805 804 802 802 801 800 799 799 798 798 797 797 797 796 796 796 796 796 797 797 797
858 858 859 859 859 860 859 860 860 859 859 859 859 858 858 857 857 857 857 856 856 855 855 854 853 853 852 851 850 849 848 847 846 845 844 843 842 841 840 839 838 837 835 834 833 831 830 828 827 825 824 822 821 820 819 817 816 815 814 812 811 810 809 808 808 807 806 805 804 803 802 802 801 801 800 800 800 799 799 799 799 799 799 799 799
857 857 858 858 859 859 859 859 859 859 859 858 858 858 858 857 857 856 856 856 855 855 854 853 853 852 851 851 850 849 848 847 846 845 844 843 842 841 840 839 838 837 836 835 834 832 831 830 828 827 825 824 823 822 820 819 818 816 815 814 813 812 811 811 810 809 808 807 806 806 805 804 804 804 803 803 802 802 801 801 801 801 801 801 801
856 856 857 857 858 858 858 858 858 858 858 858 858 857 857 856 856 856 855 855 854 854 853 852 852 852 851 850 849 848 848 847 846 845 844 843 842 841 840 839 838 837 836 835 834 833 832 831 830 828 827 826 824 823 822 820 819 818 816 815 814 813 813 812 811 811 811 810 809 808 808 807 806 806 805 805 804 804 804 803 803 803 803 803 803
855 855 856 856 857 857 857 857 857 857 857 857 857 857 856 856 856 855 854 854 854 853 852 852 851 851 850 849 848 848 847 846 846 845 844 843 842 841 840 839 839 837 837 836 835 834 833 832 831 830 828 827 826 825 823 822 821 819 818 816 815 814 814 814 813 812 812 812 811 810 810 809 809 808 807 807 806 806 805 805 805 805 805 805 804
854 854 854 855 855 855 856 856 856 856 856 856 856 856 855 855 855 854 853 853 853 852 852 851 850 850 849 848 848 847 846 846 845 844 843 843 842 841 840 839 838 838 837 836 835 834 833 832 831 830 829 828 827 826 824 823 822 821 819 818 817 816 815 815 814 814 813 813 812 812 811 811 810 810 809 809 808 808 807 807 806 806 806 806 806
852 853 853 853 853 854 854 854 854 854 854 854 854 854 854 854 853 853 852 852 852 851 851 850 850 849 848 848 847 846 846 845 845 844 843 842 841 841 840 839 838 837 837 836 835 834 833 833 832 831 830 829 828 827 825 824 823 822 821 820 819 818 817 816 815 815 814 814 814 813 813 812 812 811 811 810 810 809 809 808 808 808 807 807 807
851 851 851 851 851 851 852 852 852 852 853 853 852 853 853 852 852 852 851 851 851 850 850 849 849 848 848 847 846 845 845 844 844 843 842 841 841 840 839 839 838 837 836 835 835 834 833 833 832 831 830 829 828 827 826 825 824 823 822 821 820 819 818 817 816 816 815 815 815 814 814 813 813 812 812 811 811 810 810 810 809 809 808 808 808
Wind_Speed
18 17 16 16 16 16 16 15 15 14 14 14 16 17 18 18 19 20 20 19 18 17 16 16 16 15 15 15 15 19 21 22 23 24 23 24 24 24 24 23 22 21 21 19 18 17 18 21 23 25 25 25 26 26 26 25 24 25 26 27 28 28 27 22 13 11 17 23 25 24 23 23 26 30 33 35 37 39 40 39 38 37 36 37 37
18 17 17 17 17 17 17 17 16 15 14 14 15 15 16 17 17 19 21 21 20 18 17 17 17 16 16 16 16 19 22 22 23 24 24 24 24 24 24 24 24 23 23 23 22 20 20 21 22 23 24 25 26 26 27 26 25 25 26 26 27 28 28 26 19 13 14 21 25 26 24 23 26 29 32 35 37 39 39 39 40 39 38 38 38
18 18 18 18 18 19 20 20 19 17 16 16 15 15 15 15 16 17 20 22 20 18 17 16 17 17 17 17 17 19 22 24 25 27 27 26 25 25 25 24 24 24 24 25 24 23 23 23 23 22 23 25 27 27 27 28 27 26 27 27 27 28 29 28 25 18 15 19 23 25 24 24 27 28 31 35 37 38 39 40 41 41 40 40 40
17 17 18 17 17 18 20 21 20 18 18 17 16 16 15 15 15 16 18 21 21 19 17 16 16 17 16 17 17 17 20 23 25 28 28 26 26 26 26 25 25 25 25 25 25 24 23 23 23 22 23 25 26 27 27 27 27 27 27 27 28 30 29 28 28 25 20 19 20 24 26 26 28 29 30 33 34 36 37 36 36 38 40 41 41
16 17 17 17 16 16 17 19 20 19 18 18 18 17 16 15 16 16 17 20 20 20 19 17 17 17 17 17 17 17 20 22 24 28 29 28 27 27 26 25 24 24 24 24 24 24 23 23 24 24 24 25 26 26 26 26 26 27 28 28 28 29 29 28 29 29 25 21 20 23 26 27 27 28 30 32 31 31 33 33 34 34 35 38 40
16 17 16 17 17 16 15 16 18 19 19 19 20 19 18 17 17 16 17 19 21 22 21 19 18 17 17 17 17 19 21 23 27 32 32 30 29 28 27 25 24 24 24 24 24 24 24 24 25 24 24 25 27 27 26 27 27 27 28 29 28 28 28 27 28 29 28 27 24 23 24 26 26 25 29 33 32 31 30 30 31 32 33 33 34
16 16 16 16 16 16 15 14 15 17 17 18 20 20 21 21 20 19 19 21 23 23 22 21 18 17 17 17 18 19 22 25 31 34 34 33 31 29 28 27 25 25 25 26 26 26 25 25 25 24 23 24 26 27 28 28 28 28 29 29 29 29 28 27 28 28 28 27 25 24 25 26 26 25 28 32 33 33 32 28 25 29 32 34 34
15 16 16 16 15 14 14 13 14 15 15 16 19 20 21 22 23 23 22 23 23 23 23 22 20 18 17 17 18 20 23 27 33 35 35 34 32 29 27 27 26 26 26 27 27 27 27 27 26 25 23 24 25 27 30 31 30 29 29 29 28 29 28 27 26 27 26 24 22 24 25 25 25 24 24 27 27 27 30 31 29 30 33 35 36
16 16 15 15 14 13 13 13 13 13 13 14 15 18 19 20 22 24 24 24 23 23 24 24 23 22 21 20 21 22 25 29 34 34 34 34 32 28 26 26 26 25 24 26 26 26 26 25 25 24 24 25 26 27 29 31 32 32 30 29 28 28 28 27 26 25 23 21 20 21 21 22 24 22 22 27 29 27 30 32 30 30 32 32 33
17 16 16 15 14 13 13 14 13 13 14 14 14 15 16 18 19 22 24 25 24 25 25 25 25 25 25 24 24 24 26 31 34 33 33 33 33 29 26 26 26 24 23 24 26 26 25 25 25 25 25 25 25 25 26 27 30 32 32 31 29 28 27 26 26 26 23 20 20 21 18 18 23 26 25 29 33 31 31 33 28 25 26 24 24
17 16 15 14 14 14 14 14 14 15 15 15 15 14 15 16 17 19 22 24 25 25 26 27 27 26 26 27 27 27 28 32 34 33 33 34 33 31 28 26 26 24 22 22 24 25 27 28 28 27 26 26 26 27 27 27 27 29 31 33 32 31 30 28 26 26 24 22 22 22 19 18 24 29 29 29 32 32 34 36 31 27 25 21 18
17 16 16 15 15 16 15 16 16 16 16 16 15 14 14 16 17 18 20 22 23 25 26 27 27 27 27 28 28 28 30 33 34 33 34 34 33 31 29 27 25 23 22 22 23 25 27 30 30 28 26 26 28 30 30 29 28 28 29 30 32 33 34 32 31 30 26 23 23 23 23 23 26 29 30 29 31 33 33 35 34 31 29 26 23
17 17 18 18 18 18 18 18 18 18 16 15 14 14 15 17 18 19 20 21 22 24 25 26 26 27 28 28 29 29 31 35 35 34 34 34 33 32 31 29 27 23 22 22 24 25 28 30 31 30 30 30 30 30 31 32 32 31 30 30 29 31 33 34 34 35 33 28 25 25 28 28 28 30 33 32 32 33 31 32 34 32 30 32 32
18 19 20 20 20 20 20 20 20 19 18 17 16 17 18 19 20 20 21 22 23 24 25 25 26 27 27 28 29 30 32 35 37 36 35 34 34 33 32 30 30 28 24 22 23 26 28 29 29 30 33 37 37 33 33 35 35 34 33 33 30 28 31 33 33 34 36 35 31 29 31 32 32 34 35 35 36 37 35 35 35 36 36 36 36
19 20 20 20 21 21 21 21 21 20 20 20 20 20 21 21 22 22 23 23 23 24 25 26 27 28 28 29 30 31 32 36 38 38 37 35 34 34 33 32 31 32 30 26 24 26 26 26 28 30 33 38 40 37 36 38 37 34 33 35 34 30 29 31 31 30 31 34 35 35 34 34 34 36 36 36 38 41 41 40 40 41 39 32 26
20 20 21 21 21 21 21 21 21 21 21 21 22 22 22 22 23 23 24 24 24 24 25 26 27 28 29 30 31 31 33 36 38 39 38 37 36 35 35 33 32 33 33 31 28 28 27 26 28 31 34 39 42 40 38 38 35 32 32 34 35 32 28 28 29 29 28 29 31 33 36 36 36 36 37 37 39 39 37 34 32 32 29 22 18
20 21 20 20 20 20 20 21 20 20 20 21 22 22 22 22 23 23 24 25 25 26 26 27 27 28 29 30 30 31 33 35 38 39 39 39 38 37 36 34 34 34 34 31 30 31 30 28 28 31 36 40 41 40 38 36 32 28 28 28 28 28 26 25 26 28 28 28 28 28 32 36 37 37 39 39 39 38 34 28 27 29 25 16 13
19 20 20 19 19 19 20 20 20 20 20 21 21 21 21 21 22 23 24 24 25 25 26 27 27 28 29 29 29 30 32 35 37 38 39 39 39 38 34 32 33 36 34 31 31 32 33 31 30 33 37 39 38 37 36 34 29 22 20 19 18 20 23 24 24 26 27 27 28 27 29 32 36 38 39 39 39 40 37 32 29 31 27 19 15
18 19 19 18 18 18 19 19 19 19 19 19 19 20 20 21 21 23 23 24 24 25 26 27 27 28 29 29 30 31 32 34 37 37 38 38 38 37 34 30 32 35 34 31 31 34 35 36 35 36 37 37 37 35 34 32 28 20 15 15 15 18 21 22 23 25 27 27 28 29 30 31 34 38 40 40 40 42 42 38 34 34 30 25 21
16 16 17 17 17 17 17 18 18 18 18 18 19 20 20 21 22 24 24 24 24 24 26 27 27 27 28 29 30 31 31 34 36 37 36 37 38 37 35 31 31 32 30 29 31 34 36 37 37 38 37 37 36 35 32 31 29 22 13 9 11 14 17 19 20 23 26 27 27 27 28 30 32 35 37 39 39 41 42 40 39 40 36 30 28
14 14 14 15 16 16 17 17 17 17 17 17 18 19 19 20 22 23 24 24 24 24 25 26 27 27 28 29 31 31 31 32 35 36 36 36 36 37 36 34 32 30 28 28 30 33 35 36 37 38 37 36 35 35 32 30 28 26 22 15 9 8 9 10 11 13 15 17 18 19 20 22 24 27 30 33 36 38 40 40 39 41 41 36 33
13 14 14 14 15 16 16 16 16 16 15 15 16 17 18 18 20 21 22 23 24 24 25 27 28 28 29 29 30 31 32 32 34 35 36 36 36 35 35 34 33 30 28 28 30 32 33 34 35 36 36 35 35 35 34 32 30 28 25 21 16 10 6 3 0 1 1 1 2 3 5 8 11 14 16 21 26 31 35 37 37 39 41 41 39
13 14 14 14 14 14 14 14 14 14 14 14 15 15 16 17 18 19 21 23 24 25 25 27 28 29 30 30 30 31 32 33 33 34 36 36 36 35 34 33 33 31 29 28 30 32 33 33 33 34 35 36 36 37 37 36 35 31 26 23 21 19 18 14 12 12 14 14 13 12 10 7 6 7 7 7 10 17 23 27 29 34 35 34 36
12 13 13 13 13 13 12 12 12 12 12 12 12 13 15 16 18 19 21 22 24 24 25 26 27 28 29 30 30 31 31 33 34 34 35 36 36 36 34 33 32 32 31 30 30 31 33 32 32 33 35 37 37 38 39 40 39 36 32 29 26 25 26 24 21 21 22 21 20 18 16 14 12 12 12 9 5 5 11 15 19 26 28 26 28
12 12 12 12 11 11 10 10 10 10 10 10 11 12 13 14 16 18 20 21 22 23 23 24 25 27 28 29 30 30 30 31 34 34 34 35 36 36 35 34 32 31 31 32 32 32 33 34 34 34 36 37 39 40 41 42 42 40 38 36 34 32 30 27 25 26 26 24 22 21 19 16 15 15 16 15 11 8 9 11 14 17 19 20 22
10 10 10 9 9 8 8 7 7 8 8 9 10 11 12 13 14 15 17 19 21 21 22 23 24 25 27 28 29 29 29 30 33 35 35 34 35 36 36 35 33 32 31 32 33 33 35 36 36 37 37 39 40 41 41 42 44 44 42 40 39 37 34 31 28 27 25 23 23 23 21 19 17 16 18 17 16 15 14 15 17 18 19 20 21
8 8 8 7 6 6 7 7 7 7 8 8 9 10 11 12 12 13 15 17 19 20 21 22 23 24 25 27 27 28 29 30 32 34 35 34 34 36 37 35 34 33 33 33 33 34 35 37 38 40 41 41 42 42 43 44 45 45 43 42 40 39 37 34 32 30 27 25 25 25 23 23 22 20 20 20 18 17 17 19 21 22 22 25 25
7 7 7 5 5 5 6 7 7 7 8 8 9 10 11 11 11 12 13 15 17 18 20 20 21 21 22 24 26 27 28 29 30 31 31 31 32 34 36 36 34 33 32 33 34 35 36 39 41 42 43 43 42 42 43 43 42 42 42 42 41 40 38 36 35 33 31 29 29 29 28 28 28 27 26 25 22 19 18 21 24 24 25 28 26
11 10 8 7 6 6 6 6 7 7 7 8 8 9 10 10 10 11 11 12 13 15 17 17 18 19 20 21 23 24 26 27 28 27 27 27 29 31 33 33 32 31 31 33 35 36 38 39 40 40 40 39 38 38 38 39 40 41 41 41 41 41 40 38 36 33 32 33 32 32 31 31 31 30 30 30 28 25 22 22 24 25 29 31 27
13 12 10 9 8 7 6 6 7 7 7 7 8 9 9 10 10 10 11 11 11 12 14 15 16 18 20 21 20 20 21 23 24 25 26 26 26 28 30 30 30 30 32 34 35 36 36 35 36 36 36 35 34 34 34 35 35 37 38 39 40 40 39 38 35 31 29 31 32 32 33 33 32 32 32 32 32 31 30 28 27 27 30 32 29
12 11 10 10 9 8 7 7 7 6 6 7 8 9 10 10 10 10 11 11 11 11 12 14 15 16 18 20 20 20 20 20 22 24 26 26 26 27 28 29 29 29 31 34 35 34 32 31 32 34 34 33 32 32 33 33 33 33 34 36 37 38 37 36 34 31 27 27 28 30 31 31 31 31 31 31 32 33 34 34 33 31 30 30 29
11 10 9 8 8 6 6 6 7 6 6 6 6 8 10 11 11 10 10 10 10 10 12 13 13 15 16 18 19 20 21 21 21 23 25 26 26 26 27 28 29 29 31 34 34 33 31 30 29 31 32 32 32 33 33 33 33 32 33 33 34 35 35 34 34 33 30 27 26 26 26 26 26 26 27 29 31 33 34 34 34 34 32 32 31
11 9 8 7 6 5 4 5 6 5 5 4 5 7 9 10 10 10 10 10 9 10 12 13 12 13 15 16 17 19 20 20 20 22 24 25 26 26 26 27 28 29 31 33 33 31 31 30 29 30 31 31 31 33 33 33 33 33 33 32 32 32 33 34 34 35 33 30 27 25 24 23 23 23 23 25 27 29 30 30 30 31 30 29 29
10 8 6 5 5 3 2 4 5 5 4 3 3 6 7 8 10 10 10 9 9 10 11 12 12 12 13 15 16 18 19 20 20 20 21 23 25 26 27 27 28 28 30 31 31 30 30 30 30 30 31 31 31 32 32 33 33 33 33 32 32 33 34 35 34 34 33 32 30 27 24 22 22 22 22 21 22 23 25 25 25 27 27 26 25
10 7 4 4 4 2 1 2 4 4 3 2 3 5 6 6 8 10 10 9 9 10 11 12 12 11 12 14 15 17 18 19 20 19 20 22 24 25 27 28 27 27 28 29 29 29 29 29 29 29 30 30 31 31 32 32 33 33 33 32 32 33 34 35 34 33 32 32 31 29 26 24 22 21 20 20 20 21 21 22 22 23 24 24 23
10 7 5 3 3 2 2 1 3 3 2 2 3 4 5 4 6 8 10 9 8 9 10 11 11 11 11 12 14 15 16 18 19 19 19 20 22 24 27 27 26 25 25 27 27 28 28 28 28 28 28 28 29 30 31 31 32 32 33 32 32 32 32 32 32 32 32 31 31 29 27 24 21 19 17 17 18 19 19 19 19 19 20 20 20
10 7 5 3 2 2 2 1 1 2 1 1 3 4 4 3 3 5 8 8 8 8 9 10 11 11 11 12 13 14 15 16 17 18 19 19 20 22 24 25 24 23 23 24 25 26 26 26 27 27 26 26 27 28 29 29 29 30 31 32 32 32 31 30 29 30 30 30 29 29 28 25 20 17 15 16 17 18 17 17 16 16 15 15 15
8 6 4 2 2 3 3 2 1 1 1 1 2 3 3 1 1 3 5 7 7 8 9 10 11 11 12 12 12 13 14 15 17 19 19 19 19 19 20 21 22 22 23 23 23 23 23 23 24 25 24 24 24 25 26 27 27 28 29 30 30 31 31 31 29 28 28 27 27 27 28 26 22 16 13 14 15 15 15 15 15 14 13 12 12
6 4 3 3 3 4 4 3 1 1 1 2 2 3 2 2 1 2 4 5 6 7 8 9 10 10 11 12 12 12 14 15 17 18 18 18 18 18 18 18 19 20 21 21 21 21 21 21 22 22 23 23 23 22 23 24 25 26 27 27 28 29 29 30 29 27 25 25 24 24 24 25 24 19 15 13 14 14 14 14 14 13 12 12 13
4 3 3 4 5 5 5 3 1 2 3 3 4 3 1 2 2 0 3 4 4 5 7 8 10 10 11 11 11 12 13 14 14 15 15 16 15 15 16 17 17 17 18 19 19 19 19 20 20 21 21 21 21 21 21 21 23 24 25 25 26 27 27 26 26 25 24 23 22 21 21 21 21 21 19 16 14 12 11 12 12 12 12 13 15
4 4 3 5 6 6 4 3 2 0 2 3 4 4 1 2 3 1 2 3 4 5 6 7 9 10 11 11 11 11 12 13 12 12 13 14 13 13 14 14 15 16 17 18 18 17 17 18 19 19 19 20 20 19 19 20 21 23 24 23 23 24 25 24 23 22 22 21 20 20 20 18 18 19 19 17 15 12 11 11 12 11 12 14 16
5 6 5 6 7 7 5 5 5 4 3 3 4 4 1 2 3 2 1 3 4 5 6 6 7 9 10 11 10 10 11 12 12 11 11 12 13 12 12 12 14 15 16 17 18 17 16 16 17 18 18 18 19 18 18 19 20 21 22 22 22 22 24 24 22 20 19 19 18 18 18 17 16 15 15 15 14 11 10 11 11 10 11 13 14
7 7 6 7 8 8 7 6 7 6 4 2 3 4 2 2 4 3 2 3 4 5 5 6 6 7 9 10 10 10 11 11 11 11 11 11 12 12 12 12 13 13 14 16 18 18 16 15 15 16 16 16 17 17 17 17 18 19 20 21 21 20 21 22 22 20 18 17 17 16 15 15 14 13 12 12 11 10 8 9 10 10 10 10 10
8 8 8 8 9 8 7 6 6 6 5 2 2 3 3 2 4 4 3 3 3 5 5 6 6 6 7 9 9 10 10 11 10 10 10 10 11 11 11 12 12 13 14 15 16 17 17 15 15 16 16 14 14 15 16 16 16 17 17 18 19 19 19 19 20 19 17 15 15 15 14 13 13 13 12 11 10 10 10 8 8 8 8 7 7
9 9 8 8 8 8 8 6 5 6 5 3 1 2 3 3 4 4 4 3 4 5 6 6 6 6 7 8 8 8 10 11 10 10 9 10 10 10 11 11 12 12 13 15 15 16 17 16 15 16 15 14 13 14 15 15 15 15 15 15 16 17 17 16 17 17 16 15 15 14 12 12 12 13 12 11 11 11 10 9 7 6 6 6 6
10 9 9 8 7 8 8 7 6 7 6 4 3 2 2 3 4 4 4 4 5 6 7 6 6 6 6 7 7 7 8 10 10 10 9 9 9 9 10 11 11 11 12 13 14 14 14 15 16 15 15 14 14 14 15 16 16 15 15 14 13 13 13 13 13 14 14 14 14 14 12 11 12 12 11 11 10 10 10 9 8 7 6 5 7
10 10 9 8 8 8 9 8 8 8 8 7 6 5 4 4 4 4 4 4 4 5 7 6 6 6 6 6 7 7 7 8 10 10 9 9 9 9 9 10 11 10 10 11 12 12 13 14 14 14 14 14 14 14 15 16 16 16 15 14 12 10 10 10 11 11 12 13 13 12 12 11 11 11 11 10 10 9 9 9 9 9 8 6 5
11 10 10 10 9 10 10 10 10 10 10 10 9 8 6 6 6 5 5 4 4 4 5 5 5 5 6 7 7 7 7 7 8 9 9 9 9 8 9 10 10 10 10 11 11 12 12 12 12 13 13 13 14 14 15 16 17 16 15 14 12 10 9 9 9 10 10 11 11 11 11 10 10 10 10 10 10 10 9 9 8 8 8 7 6
13 11 10 11 11 12 12 12 12 13 12 12 11 10 9 9 8 8 7 6 5 4 4 4 4 5 7 7 7 7 6 5 6 8 8 8 8 8 8 9 9 9 9 10 10 11 11 11 12 12 12 13 13 14 15 16 17 16 15 14 12 10 8 8 8 8 9 9 9 9 9 9 8 8 9 9 9 9 8 8 8 7 6 5 5
14 12 12 12 14 15 15 15 15 15 15 14 13 12 11 11 11 10 9 8 7 6 5 5 4 5 7 8 8 6 5 4 5 7 7 8 8 8 8 8 8 8 9 10 10 10 10 10 10 11 11 11 12 13 14 15 16 16 14 12 11 10 8 7 7 7 7 7 8 8 8 7 7 7 7 7 8 8 8 7 7 6 5 5 4
15 14 14 14 15 16 17 16 15 16 17 17 16 14 13 14 14 13 11 10 9 8 7 6 5 6 7 7 5 4 3 4 5 7 7 8 8 8 8 8 7 7 8 9 10 10 9 8 9 9 10 10 11 12 12 13 14 15 14 12 11 11 10 8 7 6 6 6 6 6 7 7 7 7 7 7 7 7 7 7 6 4 3 4 3
Wind_Direction
79 74 70 67 62 58 53 47 45 41 36 35 34 33 31 29 29 27 24 22 18 17 16 11 9 11 13 16 12 3 1 358 353 349 343 337 334 332 331 329 326 322 318 313 308 306 303 297 291 287 284 279 275 274 272 267 261 255 250 246 240 235 231 228 230 240 238 237 239 242 241 237 232 229 227 225 225 226 226 226 228 227 225 223 221
80 74 69 66 61 58 54 50 49 49 47 45 41 37 33 29 28 27 25 23 22 21 20 15 14 16 17 20 17 7 4 4 1 359 356 348 343 340 337 334 329 323 318 314 309 305 302 297 293 291 287 280 276 276 275 270 264 259 254 249 244 240 236 232 230 234 239 237 235 238 238 231 227 228 226 225 225 224 222 222 224 225 225 223 220
82 77 73 70 66 61 57 56 56 56 55 53 48 41 36 32 30 27 24 23 25 25 22 19 17 19 18 20 20 10 5 8 8 6 2 357 352 350 349 345 340 334 326 319 314 307 303 298 293 291 289 283 276 274 275 272 265 260 256 252 247 245 241 235 231 231 237 238 233 232 231 225 225 228 229 228 226 223 221 221 221 221 222 222 221
85 81 76 72 69 65 61 59 58 58 56 54 51 43 38 37 37 33 23 20 24 29 28 25 22 21 20 20 22 15 7 6 6 3 1 356 351 350 351 349 344 340 334 329 323 315 308 302 296 292 290 286 279 273 270 269 266 261 258 254 249 247 245 240 234 230 233 238 233 230 230 226 226 228 228 226 223 222 221 219 219 218 217 219 221
87 83 77 72 70 68 64 60 58 59 57 54 52 47 44 44 45 41 28 19 24 31 32 30 26 24 22 19 18 14 8 5 2 1 360 357 353 350 347 345 342 340 337 334 331 324 317 309 304 300 294 289 284 277 271 267 265 262 258 256 253 251 247 242 238 233 232 234 232 230 230 228 227 227 224 220 216 217 219 219 221 219 215 217 218
85 80 76 71 68 66 64 61 59 60 59 54 51 50 50 50 49 46 36 27 29 32 31 29 26 22 20 18 16 12 8 5 4 3 1 358 356 354 349 345 341 339 338 338 336 331 326 320 314 308 300 292 286 282 277 269 265 262 260 258 257 256 251 243 238 235 232 233 232 229 227 226 224 221 219 217 212 209 210 214 219 217 213 214 215
82 75 73 70 66 63 63 63 61 60 59 55 51 51 51 50 50 49 44 39 38 36 33 31 27 22 19 17 15 11 8 6 5 5 4 1 357 355 354 350 344 342 341 339 337 335 331 327 323 315 305 297 290 285 282 278 270 263 260 259 258 256 254 247 241 236 232 231 230 226 225 224 221 218 217 216 212 209 205 201 205 211 211 212 212
83 76 74 71 66 63 65 68 65 61 60 57 53 52 51 49 48 48 46 44 41 39 38 36 33 29 24 18 15 12 10 8 6 5 4 2 358 356 355 352 346 343 341 338 335 334 332 331 329 323 312 303 297 290 284 280 278 272 263 258 256 254 252 248 244 239 233 230 228 225 223 219 217 216 213 207 204 206 204 199 199 204 206 210 212
84 80 77 72 68 67 70 72 70 67 67 65 58 53 50 47 45 43 42 42 40 38 37 35 34 31 27 22 19 16 12 8 6 6 4 1 358 357 356 352 348 343 338 335 334 334 333 330 326 321 313 307 305 302 291 280 277 277 272 263 255 252 251 248 244 242 238 233 229 223 218 214 211 205 199 199 201 203 202 202 204 205 204 207 209
85 81 77 72 72 74 74 74 73 72 72 70 65 59 51 46 42 38 37 38 38 37 36 34 32 28 26 23 20 18 13 8 6 8 8 4 360 359 358 354 351 345 336 333 335 337 336 332 327 322 319 316 313 310 303 290 279 277 277 271 260 251 247 244 242 242 240 234 230 224 217 214 210 204 202 203 205 203 199 199 203 201 197 200 208
85 80 76 76 78 78 76 74 73 72 71 69 67 63 55 49 45 40 36 36 37 36 34 32 30 26 24 23 20 17 12 8 7 8 9 8 4 2 0 354 349 344 337 333 334 337 337 337 335 331 328 326 322 315 307 298 287 282 281 277 270 260 251 244 241 242 239 233 231 226 219 217 214 210 210 207 203 201 199 198 198 193 188 193 204
84 80 79 81 82 79 76 75 73 72 70 68 65 61 53 49 47 45 41 37 35 34 32 30 28 26 25 23 21 18 13 10 9 7 8 8 7 5 2 356 349 342 336 335 336 336 338 338 337 336 333 329 325 321 315 305 294 286 282 281 277 269 261 254 248 246 242 234 229 224 218 218 217 214 212 207 202 202 201 199 199 194 191 196 203
86 83 84 84 83 81 79 77 74 72 70 68 64 59 52 49 48 46 43 39 35 33 30 28 26 25 24 22 21 18 15 13 11 8 6 7 7 7 4 358 354 347 338 337 337 337 338 339 337 337 336 334 331 326 321 314 303 290 281 278 279 273 266 262 257 252 247 240 233 229 223 219 218 217 216 210 204 202 200 200 202 199 197 203 208
89 87 88 87 85 83 80 77 75 73 71 69 65 60 57 54 51 46 42 39 36 33 30 29 27 25 24 22 20 19 17 15 14 11 7 5 6 7 5 0 358 355 347 340 337 338 339 339 337 334 334 338 339 332 322 316 308 297 284 275 274 273 267 262 260 258 252 245 240 239 235 227 223 223 221 214 208 205 202 201 202 201 203 209 212
92 91 91 89 86 83 81 79 77 74 73 70 67 64 59 55 51 46 44 41 39 37 34 31 30 28 26 23 21 19 17 16 15 14 10 6 5 6 4 1 358 357 355 350 342 341 339 337 338 336 334 340 342 336 328 320 309 296 284 272 266 267 267 262 260 260 259 253 247 243 241 237 231 229 226 219 214 214 212 209 207 204 203 205 204
95 93 91 89 87 85 83 82 79 77 74 71 67 63 58 55 51 48 47 45 42 40 37 34 31 29 28 24 20 19 18 17 16 15 13 9 7 6 4 1 358 356 356 354 348 346 345 342 341 339 339 344 346 341 336 329 313 292 277 267 261 261 264 263 262 262 263 263 259 251 246 242 237 236 233 226 221 219 215 212 208 202 196 191 184
98 93 91 90 89 88 87 85 82 79 75 71 67 63 59 56 53 50 48 45 42 40 37 34 32 29 27 25 20 17 18 17 16 15 14 12 9 7 3 360 356 354 354 352 350 350 350 348 346 343 345 350 350 346 343 338 321 293 270 262 260 259 260 263 264 264 263 265 267 266 258 249 243 240 237 232 227 219 209 204 199 191 188 187 181
102 95 91 91 90 89 88 87 84 81 77 72 69 65 62 59 55 51 49 45 42 39 37 35 33 30 28 25 20 17 17 18 17 16 16 13 10 8 4 359 355 354 352 351 350 351 352 352 352 350 350 355 355 353 354 350 336 306 272 261 262 260 260 262 263 262 262 263 264 266 265 257 248 242 239 236 232 221 210 205 197 187 187 194 186
106 98 94 92 92 91 89 88 85 82 78 74 71 67 64 60 56 52 49 46 43 40 37 34 33 31 28 25 22 20 18 17 17 17 17 16 12 8 6 1 355 354 353 349 347 351 353 355 358 357 357 1 3 0 3 6 357 330 288 266 263 263 264 266 264 261 260 260 260 260 262 258 249 243 240 238 233 224 217 212 202 191 192 195 183
109 104 100 96 95 94 90 88 85 81 78 74 71 68 63 59 54 50 47 46 44 41 38 34 32 31 29 26 24 22 19 16 16 17 18 18 14 11 10 6 358 354 353 349 346 349 352 355 359 1 2 7 10 7 9 17 17 5 340 304 281 276 274 271 267 263 260 259 259 259 258 255 247 240 237 234 230 224 219 215 208 200 197 192 183
113 110 107 102 99 96 91 87 83 80 77 73 69 66 61 55 50 47 44 42 41 40 36 33 30 29 28 26 25 24 21 17 15 17 19 19 17 14 12 10 4 357 355 353 349 349 350 353 358 2 5 12 15 14 14 20 26 25 21 18 1 315 291 275 264 262 257 253 253 250 246 243 238 232 229 226 223 221 217 214 211 207 201 195 189
117 116 112 106 101 96 91 87 83 80 76 71 66 63 58 52 47 43 40 38 37 36 32 29 27 25 24 24 24 23 22 18 16 17 19 20 19 17 14 12 10 5 1 358 355 352 351 353 358 3 10 17 21 21 21 24 30 32 31 32 36 35 30 26 56 96 104 173 203 209 213 213 210 210 214 216 217 218 216 214 213 210 206 202 196
121 120 116 109 103 98 92 89 85 80 75 69 64 60 55 50 45 40 36 34 32 31 29 25 23 20 19 20 21 22 21 19 17 18 19 20 20 19 17 15 14 12 8 2 358 357 355 356 0 7 16 22 25 26 27 28 31 35 38 40 43 50 56 61 73 84 81 76 71 66 63 71 106 131 149 182 205 210 210 211 210 206 203 203 199
125 122 118 111 106 101 94 90 84 77 72 67 62 58 53 48 43 38 34 32 29 27 25 22 19 17 15 14 17 20 20 19 18 18 18 19 20 19 18 17 17 17 15 9 5 3 1 2 6 14 22 26 28 30 32 31 32 36 42 46 47 50 51 51 59 69 71 67 62 58 57 58 65 79 92 97 106 173 190 191 193 194 194 194 193
132 125 119 111 106 100 93 90 82 73 65 57 52 51 46 41 38 35 32 30 27 24 22 19 17 15 13 11 13 17 18 18 18 19 18 18 19 20 19 18 18 20 20 16 13 11 10 13 16 21 26 28 29 31 32 32 33 36 41 45 48 49 47 45 49 56 57 55 52 50 52 59 65 74 86 97 102 109 132 143 148 161 171 176 177
141 133 124 113 105 95 85 79 73 63 54 44 40 39 35 32 30 28 26 26 24 21 19 17 15 14 13 11 11 14 17 17 18 18 17 17 18 19 20 19 19 21 23 22 20 18 17 19 21 24 26 29 30 30 30 31 34 36 39 42 44 45 45 43 44 48 48 49 50 49 50 59 70 79 86 95 102 102 109 119 119 123 136 141 139
155 148 138 124 111 95 78 67 60 53 46 39 33 31 30 27 23 20 18 17 18 18 16 15 14 13 12 11 11 14 16 17 17 17 16 17 18 19 20 19 19 21 23 23 23 21 19 20 23 26 29 31 33 32 31 32 33 32 33 37 40 43 45 46 48 49 48 48 52 53 54 61 68 72 75 79 83 90 104 116 112 108 117 120 110
152 154 154 139 121 105 85 70 61 53 49 42 33 28 28 27 22 18 15 11 11 12 13 13 13 13 12 10 9 12 16 17 17 16 16 16 17 19 19 19 21 23 23 23 23 23 22 22 24 25 26 28 29 29 30 31 32 31 31 33 35 39 44 48 50 51 52 54 56 55 55 59 60 61 65 67 66 72 91 105 106 105 110 108 96
133 138 145 143 134 122 102 83 70 60 55 48 38 31 30 31 29 25 21 17 13 12 12 14 16 18 20 17 12 10 14 16 15 15 17 18 19 21 21 21 22 26 28 28 27 26 24 23 22 21 21 21 21 23 25 27 29 30 31 32 34 36 39 41 42 45 48 53 56 55 55 57 57 58 61 61 60 63 74 84 91 97 102 99 89
127 130 132 134 136 131 115 99 84 71 62 54 46 39 37 37 34 31 29 27 23 19 18 19 20 22 25 26 22 17 16 17 16 15 18 20 22 24 25 25 26 29 31 32 31 28 25 22 20 19 19 19 18 18 20 23 26 28 29 31 33 34 36 37 40 45 50 53 55 56 56 56 55 55 57 58 59 62 66 70 75 83 90 91 87
129 128 125 125 129 131 124 109 94 81 73 64 51 40 37 37 34 32 33 32 27 22 22 23 24 24 24 26 27 25 22 20 19 19 19 21 24 25 27 29 30 31 32 34 33 29 25 23 21 20 20 19 18 18 20 22 24 26 28 31 32 34 35 35 38 46 54 58 59 60 59 58 58 57 58 59 60 62 64 65 67 70 76 82 84
136 127 120 118 120 127 129 115 99 87 78 69 51 34 30 30 27 26 31 33 25 17 18 22 24 24 25 26 26 25 24 23 22 22 22 22 23 25 27 31 32 32 33 35 34 30 27 25 22 21 21 19 18 19 21 23 24 26 29 30 31 33 35 36 39 45 51 55 59 61 62 63 63 64 66 67 66 65 65 65 66 67 68 72 76
145 136 126 118 114 118 127 120 103 84 72 65 46 31 26 23 19 17 22 30 28 17 14 18 20 20 24 27 27 26 26 25 24 24 25 24 25 26 28 32 35 34 34 35 34 30 28 28 25 23 22 21 20 22 24 25 26 28 30 31 31 33 37 41 44 46 48 51 54 59 64 69 70 69 71 71 70 70 71 70 72 75 74 73 75
152 151 142 132 128 122 116 122 113 89 71 67 43 29 24 22 17 12 11 19 26 19 13 14 16 17 21 25 27 27 28 28 27 26 26 26 27 27 28 33 38 39 38 37 34 30 28 28 26 25 24 23 24 25 26 27 28 29 30 31 33 35 39 43 45 45 47 50 50 52 60 71 77 76 75 73 73 73 75 76 77 79 80 79 79
153 153 149 147 155 162 160 138 130 109 78 67 44 24 20 21 17 11 6 6 10 10 9 9 10 12 17 22 24 26 28 29 29 29 28 27 27 27 28 30 32 35 35 33 31 29 27 26 26 26 26 27 28 29 29 29 30 31 31 31 33 34 37 40 42 43 47 50 49 49 55 64 73 80 80 77 76 75 76 80 82 83 84 86 86
153 147 139 140 162 192 228 190 149 138 95 62 46 26 15 16 13 8 5 1 357 359 2 4 4 7 14 18 21 24 26 29 29 30 30 29 28 28 29 27 24 26 29 27 26 27 28 26 25 26 28 31 32 32 32 32 33 34 35 35 36 37 38 39 40 41 45 48 47 48 50 55 65 77 80 76 76 78 79 82 85 86 88 90 91
159 151 137 128 153 186 204 223 188 181 182 61 44 29 13 8 9 5 0 358 356 355 356 358 0 3 8 14 17 20 24 27 30 30 31 31 30 30 31 28 23 22 23 22 23 27 29 28 27 27 29 31 33 33 33 34 34 34 36 37 38 39 40 41 42 44 45 47 47 47 47 48 55 69 76 74 75 79 82 85 87 88 91 95 95
164 165 158 153 177 181 183 200 208 198 231 283 345 355 340 321 15 8 357 357 359 356 351 353 356 359 3 7 10 14 17 21 27 30 30 29 28 29 30 29 25 22 22 21 21 24 27 28 28 28 28 29 30 31 33 35 34 34 34 36 37 39 40 41 42 45 47 48 48 48 47 47 48 56 70 78 80 83 86 89 91 91 90 93 96
162 168 186 208 207 192 189 201 217 326 341 344 350 336 301 240 178 10 354 356 359 355 349 350 352 357 0 2 3 6 10 15 22 27 29 29 29 28 28 28 26 23 23 22 21 22 24 26 27 27 26 25 26 28 30 32 33 33 34 35 36 38 38 38 39 43 47 48 48 48 48 48 49 53 66 82 89 93 94 93 93 94 91 91 95
172 168 203 220 205 187 188 208 252 350 24 40 36 12 298 206 181 17 350 349 349 346 344 346 350 354 358 359 360 0 2 8 16 23 25 27 29 29 27 26 25 23 20 18 18 19 20 20 21 23 23 22 23 25 27 27 27 29 31 34 37 38 38 37 38 41 45 48 48 49 49 50 51 54 62 75 86 94 100 101 99 99 99 100 103
177 172 197 207 190 177 185 209 218 93 72 68 52 40 34 196 186 183 330 325 327 332 333 338 345 350 352 356 359 359 357 358 5 13 20 23 25 25 23 21 19 17 13 11 12 12 11 12 13 15 18 20 21 23 26 26 24 24 26 30 35 37 37 37 38 40 42 45 47 48 50 52 54 54 57 64 73 83 98 105 105 107 110 110 110
173 166 175 187 182 172 167 174 171 151 125 102 78 62 52 218 205 195 288 296 303 317 321 326 337 345 348 352 356 357 355 353 353 359 9 16 19 20 18 14 12 10 6 5 6 6 5 7 8 8 12 17 19 21 25 26 24 23 24 27 32 34 33 33 35 38 41 42 44 46 49 52 55 57 57 60 63 71 90 105 111 116 121 119 116
173 162 162 174 177 169 158 158 164 164 152 119 82 71 63 220 212 208 242 271 288 306 311 316 327 337 341 346 349 353 354 352 349 349 355 4 12 17 16 12 11 9 4 2 5 7 7 8 8 8 10 15 17 20 23 23 22 23 25 26 29 31 31 30 30 33 38 39 39 42 47 51 56 60 60 60 60 61 75 104 120 124 123 120 120
182 171 167 172 175 172 165 162 170 176 176 163 93 81 88 162 199 210 224 244 280 303 304 305 315 325 332 338 342 347 351 350 348 347 348 353 1 10 13 11 9 7 4 3 6 10 11 10 9 11 15 19 20 21 22 22 21 20 21 22 24 26 28 28 27 28 31 33 34 39 46 51 54 58 59 60 63 63 65 84 113 129 132 127 125
192 185 179 178 183 185 179 170 177 191 195 192 169 133 122 147 180 205 224 244 278 294 292 293 300 308 319 330 333 338 345 348 347 347 347 349 353 2 9 11 8 4 4 4 5 9 12 12 11 13 19 24 24 21 20 21 20 15 13 13 15 18 21 24 25 26 29 31 33 41 50 52 50 51 54 59 64 66 65 69 87 119 143 152 149
202 199 194 193 198 199 193 190 197 208 211 212 216 208 176 162 176 203 224 240 267 279 278 279 285 290 304 322 325 324 333 341 343 344 346 348 350 354 3 9 10 7 6 6 6 8 10 13 16 20 24 26 25 23 19 18 15 10 7 5 4 7 13 17 21 26 31 32 34 40 47 48 45 43 46 52 56 57 58 60 67 84 113 147 164
211 212 213 213 211 207 206 212 219 222 223 228 229 220 202 186 180 188 205 224 260 277 273 268 272 278 290 307 312 310 316 329 337 340 342 344 346 349 354 3 10 11 9 8 9 8 7 9 15 23 26 25 23 21 19 16 13 10 9 8 5 6 14 17 18 23 29 31 33 36 40 44 47 47 47 49 49 50 53 55 57 64 74 90 128
219 227 233 234 229 221 220 224 228 228 229 231 227 219 211 204 197 197 214 237 269 287 274 258 261 270 275 285 298 301 303 316 331 340 342 340 340 343 347 355 3 7 6 6 8 8 6 6 9 14 17 17 14 12 12 12 11 11 12 15 16 20 24 21 18 21 23 25 27 31 33 38 44 47 48 49 48 49 53 56 55 56 57 60 78
223 234 240 240 237 235 236 236 235 233 233 233 229 224 220 215 213 219 234 244 253 265 259 247 253 265 267 276 294 301 298 309 329 340 342 339 336 337 341 348 354 357 357 358 0 3 4 5 7 10 12 12 10 8 6 7 7 8 11 16 22 27 27 22 17 17 18 18 20 22 23 27 30 32 35 39 39 39 42 47 47 47 46 50 69
226 233 240 244 242 241 242 243 242 239 238 237 235 233 230 225 223 228 236 239 239 243 242 240 253 270 274 284 298 300 291 302 326 334 333 332 331 329 333 341 347 347 347 349 351 353 356 1 7 10 11 11 12 11 8 7 7 7 8 12 17 21 22 19 13 9 9 12 16 15 12 10 12 13 14 17 18 18 22 26 28 33 40 46 60
232 233 238 242 238 233 235 240 243 242 241 241 240 239 237 232 230 231 236 238 239 240 238 237 253 277 288 295 302 292 271 289 317 324 322 320 319 316 318 328 338 340 340 343 345 344 344 350 0 6 6 7 9 11 12 12 12 10 9 9 10 11 13 13 10 5 359 356 357 358 358 358 358 358 359 1 1 360 2 4 4 6 24 39 43